Wetterdaten: aktuell Mittwoch, 27.05.2020 01:50
Datum Zeit Temp. A. Feuchte A. Luftdruck Regen Wind Richtung Richtung ET UV Solar Taupunkt Windchill Windben
27.05.2020 01:50 9,0 C 86 % 1033,3 hPa 0,0 l/m 0,0 km/h (0 Bft) W-NW 285 0,000 mm 0,0 UV-I 0 W/m 6,8 C 9,0 C 0,0 km/h (0 Bft)
27.05.2020 01:45 9,2 C 86 % 1033,4 hPa 0,0 l/m 0,0 km/h (0 Bft) W-NW 285 0,000 mm 0,0 UV-I 0 W/m 7,0 C 9,2 C 0,0 km/h (0 Bft)
27.05.2020 01:40 9,2 C 86 % 1033,4 hPa 0,0 l/m 0,0 km/h (0 Bft) W-NW 285 0,000 mm 0,0 UV-I 0 W/m 7,0 C 9,2 C 0,0 km/h (0 Bft)
27.05.2020 01:35 9,3 C 86 % 1033,4 hPa 0,0 l/m 0,0 km/h (0 Bft) W-NW 285 0,000 mm 0,0 UV-I 0 W/m 7,1 C 9,3 C 0,0 km/h (0 Bft)
27.05.2020 01:30 9,4 C 86 % 1033,3 hPa 0,0 l/m 0,0 km/h (0 Bft) W-NW 285 0,000 mm 0,0 UV-I 0 W/m 7,2 C 9,4 C 0,0 km/h (0 Bft)
27.05.2020 01:25 9,5 C 86 % 1033,4 hPa 0,0 l/m 0,0 km/h (0 Bft) W-NW 285 0,000 mm 0,0 UV-I 0 W/m 7,3 C 9,5 C 0,0 km/h (0 Bft)
27.05.2020 01:20 9,6 C 86 % 1033,4 hPa 0,0 l/m 0,0 km/h (0 Bft) W-NW 285 0,000 mm 0,0 UV-I 0 W/m 7,4 C 9,6 C 0,0 km/h (0 Bft)
27.05.2020 01:15 9,7 C 86 % 1033,5 hPa 0,0 l/m 0,0 km/h (0 Bft) W-NW 285 0,000 mm 0,0 UV-I 0 W/m 7,5 C 9,7 C 0,0 km/h (0 Bft)
27.05.2020 01:10 9,8 C 86 % 1033,5 hPa 0,0 l/m 0,0 km/h (0 Bft) W-NW 285 0,000 mm 0,0 UV-I 0 W/m 7,6 C 9,8 C 0,0 km/h (0 Bft)
27.05.2020 01:05 9,9 C 86 % 1033,5 hPa 0,0 l/m 0,0 km/h (0 Bft) W-NW 285 0,000 mm 0,0 UV-I 0 W/m 7,7 C 9,9 C 0,0 km/h (0 Bft)
27.05.2020 01:00 10,1 C 85 % 1033,5 hPa 0,0 l/m 0,0 km/h (0 Bft) W-NW 285 0,000 mm 0,0 UV-I 0 W/m 7,7 C 10,1 C 1,6 km/h (1 Bft)
27.05.2020 00:55 10,2 C 85 % 1033,6 hPa 0,0 l/m 0,0 km/h (0 Bft) W-NW 285 0,000 mm 0,0 UV-I 0 W/m 7,8 C 10,2 C 0,0 km/h (0 Bft)
27.05.2020 00:50 10,3 C 85 % 1033,6 hPa 0,0 l/m 0,0 km/h (0 Bft) W-NW 285 0,000 mm 0,0 UV-I 0 W/m 7,9 C 10,3 C 0,0 km/h (0 Bft)
27.05.2020 00:45 10,4 C 85 % 1033,6 hPa 0,0 l/m 0,0 km/h (0 Bft) W-NW 285 0,000 mm 0,0 UV-I 0 W/m 8,0 C 10,4 C 0,0 km/h (0 Bft)
27.05.2020 00:40 10,6 C 85 % 1033,6 hPa 0,0 l/m 0,0 km/h (0 Bft) W-NW 285 0,000 mm 0,0 UV-I 0 W/m 8,2 C 10,6 C 0,0 km/h (0 Bft)
27.05.2020 00:35 10,6 C 85 % 1033,6 hPa 0,0 l/m 0,0 km/h (0 Bft) W-NW 285 0,000 mm 0,0 UV-I 0 W/m 8,2 C 10,6 C 0,0 km/h (0 Bft)
27.05.2020 00:30 10,8 C 85 % 1033,6 hPa 0,0 l/m 0,0 km/h (0 Bft) W-NW 285 0,000 mm 0,0 UV-I 0 W/m 8,4 C 10,8 C 1,6 km/h (1 Bft)
27.05.2020 00:25 10,9 C 85 % 1033,6 hPa 0,0 l/m 0,0 km/h (0 Bft) W-NW 285 0,000 mm 0,0 UV-I 0 W/m 8,5 C 10,9 C 0,0 km/h (0 Bft)
27.05.2020 00:20 11,1 C 85 % 1033,7 hPa 0,0 l/m 0,0 km/h (0 Bft) W-NW 285 0,000 mm 0,0 UV-I 0 W/m 8,7 C 11,1 C 0,0 km/h (0 Bft)
27.05.2020 00:15 11,2 C 85 % 1033,7 hPa 0,0 l/m 0,0 km/h (0 Bft) W-NW 285 0,000 mm 0,0 UV-I 0 W/m 8,8 C 11,2 C 0,0 km/h (0 Bft)
27.05.2020 00:10 11,4 C 85 % 1033,7 hPa 0,0 l/m 0,0 km/h (0 Bft) W-NW 285 0,000 mm 0,0 UV-I 0 W/m 9,0 C 11,4 C 0,0 km/h (0 Bft)
27.05.2020 00:05 11,5 C 85 % 1033,7 hPa 0,0 l/m 0,0 km/h (0 Bft) W-NW 285 0,000 mm 0,0 UV-I 0 W/m 9,1 C 11,5 C 0,0 km/h (0 Bft)
27.05.2020 00:00 11,6 C 85 % 1033,7 hPa 0,0 l/m 0,0 km/h (0 Bft) W-NW 285 0,000 mm 0,0 UV-I 0 W/m 9,2 C 11,6 C 0,0 km/h (0 Bft)
26.05.2020 23:55 11,8 C 86 % 1033,7 hPa 0,0 l/m 0,0 km/h (0 Bft) W-NW 285 0,000 mm 0,0 UV-I 0 W/m 9,5 C 11,8 C 0,0 km/h (0 Bft)
26.05.2020 23:50 11,9 C 86 % 1033,6 hPa 0,0 l/m 0,0 km/h (0 Bft) W-NW 285 0,000 mm 0,0 UV-I 0 W/m 9,6 C 11,9 C 0,0 km/h (0 Bft)
26.05.2020 23:45 11,9 C 86 % 1033,6 hPa 0,0 l/m 0,0 km/h (0 Bft) W-NW 285 0,000 mm 0,0 UV-I 0 W/m 9,6 C 11,9 C 0,0 km/h (0 Bft)
26.05.2020 23:40 12,0 C 85 % 1033,7 hPa 0,0 l/m 0,7 km/h (0 Bft) W-NW 285 0,000 mm 0,0 UV-I 0 W/m 9,6 C 12,0 C 4,8 km/h (1 Bft)
26.05.2020 23:35 12,0 C 84 % 1033,6 hPa 0,0 l/m 0,9 km/h (0 Bft) W-NW 283 0,000 mm 0,0 UV-I 0 W/m 9,4 C 12,0 C 9,7 km/h (2 Bft)
26.05.2020 23:30 12,1 C 84 % 1033,6 hPa 0,0 l/m 0,0 km/h (0 Bft) S-SW 205 0,000 mm 0,0 UV-I 0 W/m 9,5 C 12,1 C 0,0 km/h (0 Bft)
26.05.2020 23:25 12,2 C 83 % 1033,5 hPa 0,0 l/m 0,0 km/h (0 Bft) S-SW 205 0,000 mm 0,0 UV-I 0 W/m 9,4 C 12,2 C 1,6 km/h (1 Bft)
26.05.2020 23:20 12,3 C 83 % 1033,6 hPa 0,0 l/m 0,0 km/h (0 Bft) S-SW 205 0,000 mm 0,0 UV-I 0 W/m 9,5 C 12,3 C 0,0 km/h (0 Bft)
26.05.2020 23:15 12,4 C 83 % 1033,6 hPa 0,0 l/m 0,0 km/h (0 Bft) S-SW 205 0,000 mm 0,0 UV-I 0 W/m 9,6 C 12,4 C 1,6 km/h (1 Bft)
26.05.2020 23:10 12,6 C 82 % 1033,6 hPa 0,0 l/m 0,0 km/h (0 Bft) S-SW 205 0,000 mm 0,0 UV-I 0 W/m 9,6 C 12,6 C 1,6 km/h (1 Bft)
26.05.2020 23:05 12,7 C 82 % 1033,6 hPa 0,0 l/m 0,0 km/h (0 Bft) S-SW 205 0,000 mm 0,0 UV-I 0 W/m 9,7 C 12,7 C 0,0 km/h (0 Bft)
26.05.2020 23:00 12,9 C 82 % 1033,6 hPa 0,0 l/m 0,0 km/h (0 Bft) S-SW 205 0,025 mm 0,0 UV-I 0 W/m 9,9 C 12,9 C 0,0 km/h (0 Bft)
26.05.2020 22:55 13,1 C 81 % 1033,6 hPa 0,0 l/m 0,0 km/h (0 Bft) S-SW 205 0,000 mm 0,0 UV-I 0 W/m 9,9 C 13,1 C 0,0 km/h (0 Bft)
26.05.2020 22:50 13,2 C 81 % 1033,6 hPa 0,0 l/m 0,0 km/h (0 Bft) S-SW 205 0,000 mm 0,0 UV-I 0 W/m 10,0 C 13,2 C 0,0 km/h (0 Bft)
26.05.2020 22:45 13,3 C 81 % 1033,6 hPa 0,0 l/m 0,0 km/h (0 Bft) S-SW 205 0,000 mm 0,0 UV-I 0 W/m 10,1 C 13,3 C 0,0 km/h (0 Bft)
26.05.2020 22:40 13,4 C 81 % 1033,6 hPa 0,0 l/m 0,0 km/h (0 Bft) S-SW 205 0,000 mm 0,0 UV-I 0 W/m 10,2 C 13,4 C 0,0 km/h (0 Bft)
26.05.2020 22:35 13,6 C 80 % 1033,6 hPa 0,0 l/m 0,0 km/h (0 Bft) S-SW 205 0,000 mm 0,0 UV-I 0 W/m 10,2 C 13,6 C 0,0 km/h (0 Bft)
26.05.2020 22:30 13,7 C 80 % 1033,6 hPa 0,0 l/m 0,0 km/h (0 Bft) S-SW 205 0,000 mm 0,0 UV-I 0 W/m 10,3 C 13,7 C 1,6 km/h (1 Bft)
26.05.2020 22:25 13,8 C 79 % 1033,6 hPa 0,0 l/m 0,0 km/h (0 Bft) S-SW 205 0,000 mm 0,0 UV-I 0 W/m 10,2 C 13,8 C 0,0 km/h (0 Bft)
26.05.2020 22:20 14,1 C 79 % 1033,5 hPa 0,0 l/m 0,0 km/h (0 Bft) S-SW 205 0,000 mm 0,0 UV-I 0 W/m 10,5 C 14,1 C 1,6 km/h (1 Bft)
26.05.2020 22:15 14,3 C 78 % 1033,6 hPa 0,0 l/m 0,0 km/h (0 Bft) S-SW 205 0,000 mm 0,0 UV-I 0 W/m 10,5 C 14,3 C 0,0 km/h (0 Bft)
26.05.2020 22:10 14,4 C 77 % 1033,5 hPa 0,0 l/m 0,0 km/h (0 Bft) S-SW 205 0,000 mm 0,0 UV-I 0 W/m 10,4 C 14,4 C 0,0 km/h (0 Bft)
26.05.2020 22:05 14,6 C 77 % 1033,6 hPa 0,0 l/m 0,0 km/h (0 Bft) S-SW 205 0,000 mm 0,0 UV-I 0 W/m 10,6 C 14,6 C 0,0 km/h (0 Bft)
26.05.2020 22:00 14,8 C 76 % 1033,6 hPa 0,0 l/m 0,0 km/h (0 Bft) S-SW 205 0,000 mm 0,0 UV-I 0 W/m 10,6 C 14,8 C 0,0 km/h (0 Bft)
26.05.2020 21:55 15,1 C 74 % 1033,6 hPa 0,0 l/m 0,0 km/h (0 Bft) S-SW 205 0,000 mm 0,0 UV-I 0 W/m 10,5 C 15,1 C 0,0 km/h (0 Bft)
26.05.2020 21:50 15,4 C 73 % 1033,5 hPa 0,0 l/m 0,0 km/h (0 Bft) S-SW 205 0,000 mm 0,0 UV-I 0 W/m 10,6 C 15,4 C 1,6 km/h (1 Bft)
26.05.2020 21:45 15,7 C 73 % 1033,5 hPa 0,0 l/m 0,0 km/h (0 Bft) S-SW 205 0,000 mm 0,0 UV-I 0 W/m 10,9 C 15,7 C 1,6 km/h (1 Bft)
26.05.2020 21:40 15,9 C 72 % 1033,5 hPa 0,0 l/m 0,0 km/h (0 Bft) S-SW 205 0,000 mm 0,0 UV-I 2 W/m 10,9 C 15,9 C 1,6 km/h (1 Bft)
26.05.2020 21:35 16,2 C 72 % 1033,4 hPa 0,0 l/m 0,0 km/h (0 Bft) S-SW 205 0,000 mm 0,0 UV-I 5 W/m 11,1 C 16,2 C 0,0 km/h (0 Bft)
26.05.2020 21:30 16,4 C 71 % 1033,4 hPa 0,0 l/m 0,0 km/h (0 Bft) S-SW 205 0,000 mm 0,0 UV-I 6 W/m 11,1 C 16,4 C 0,0 km/h (0 Bft)
26.05.2020 21:25 16,7 C 70 % 1033,4 hPa 0,0 l/m 0,0 km/h (0 Bft) S-SW 205 0,000 mm 0,0 UV-I 8 W/m 11,2 C 16,7 C 0,0 km/h (0 Bft)
26.05.2020 21:20 17,0 C 70 % 1033,4 hPa 0,0 l/m 0,0 km/h (0 Bft) S-SW 205 0,000 mm 0,0 UV-I 11 W/m 11,5 C 17,0 C 1,6 km/h (1 Bft)
26.05.2020 21:15 17,2 C 70 % 1033,4 hPa 0,0 l/m 0,0 km/h (0 Bft) S-SW 205 0,000 mm 0,0 UV-I 13 W/m 11,7 C 17,2 C 1,6 km/h (1 Bft)
26.05.2020 21:10 17,4 C 69 % 1033,4 hPa 0,0 l/m 0,0 km/h (0 Bft) S-SW 205 0,000 mm 0,0 UV-I 17 W/m 11,7 C 17,4 C 1,6 km/h (1 Bft)
26.05.2020 21:05 17,6 C 71 % 1033,4 hPa 0,0 l/m 0,0 km/h (0 Bft) S-SW 205 0,000 mm 0,0 UV-I 24 W/m 12,3 C 17,6 C 1,6 km/h (1 Bft)
26.05.2020 21:00 17,8 C 69 % 1033,4 hPa 0,0 l/m 0,0 km/h (0 Bft) S-SW 205 0,026 mm 0,0 UV-I 38 W/m 12,0 C 17,8 C 1,6 km/h (1 Bft)
26.05.2020 20:55 17,9 C 70 % 1033,4 hPa 0,0 l/m 0,0 km/h (0 Bft) S-SW 205 0,000 mm 0,0 UV-I 50 W/m 12,3 C 17,9 C 1,6 km/h (1 Bft)
26.05.2020 20:50 18,1 C 70 % 1033,4 hPa 0,0 l/m 0,0 km/h (0 Bft) S-SW 205 0,000 mm 0,0 UV-I 57 W/m 12,5 C 18,1 C 0,0 km/h (0 Bft)
26.05.2020 20:45 18,2 C 67 % 1033,4 hPa 0,0 l/m 0,0 km/h (0 Bft) S-SW 205 0,000 mm 0,0 UV-I 55 W/m 12,0 C 18,2 C 1,6 km/h (1 Bft)
26.05.2020 20:40 18,4 C 67 % 1033,4 hPa 0,0 l/m 0,0 km/h (0 Bft) S-SW 205 0,000 mm 0,0 UV-I 48 W/m 12,2 C 18,4 C 0,0 km/h (0 Bft)
26.05.2020 20:35 18,7 C 65 % 1033,4 hPa 0,0 l/m 0,0 km/h (0 Bft) S-SW 205 0,000 mm 0,0 UV-I 40 W/m 12,0 C 18,7 C 1,6 km/h (1 Bft)
26.05.2020 20:30 18,8 C 63 % 1033,3 hPa 0,0 l/m 0,0 km/h (0 Bft) S-SW 205 0,000 mm 0,0 UV-I 40 W/m 11,6 C 18,8 C 0,0 km/h (0 Bft)
26.05.2020 20:25 19,0 C 63 % 1033,3 hPa 0,0 l/m 0,0 km/h (0 Bft) S-SW 205 0,000 mm 0,0 UV-I 39 W/m 11,8 C 19,0 C 1,6 km/h (1 Bft)
26.05.2020 20:20 19,1 C 63 % 1033,3 hPa 0,0 l/m 0,0 km/h (0 Bft) S-SW 205 0,000 mm 0,0 UV-I 39 W/m 11,9 C 19,1 C 1,6 km/h (1 Bft)
26.05.2020 20:15 19,2 C 64 % 1033,3 hPa 0,0 l/m 0,0 km/h (0 Bft) S-SW 205 0,000 mm 0,0 UV-I 44 W/m 12,2 C 19,2 C 1,6 km/h (1 Bft)
26.05.2020 20:10 19,1 C 62 % 1033,4 hPa 0,0 l/m 0,0 km/h (0 Bft) S-SW 205 0,000 mm 0,0 UV-I 49 W/m 11,6 C 19,1 C 0,0 km/h (0 Bft)
26.05.2020 20:05 19,0 C 64 % 1033,4 hPa 0,0 l/m 0,0 km/h (0 Bft) S-SW 205 0,000 mm 0,0 UV-I 55 W/m 12,0 C 19,0 C 1,6 km/h (1 Bft)
26.05.2020 20:00 19,0 C 64 % 1033,4 hPa 0,0 l/m 0,0 km/h (0 Bft) S-SW 205 0,101 mm 0,0 UV-I 75 W/m 12,0 C 19,0 C 1,6 km/h (1 Bft)
26.05.2020 19:55 19,2 C 64 % 1033,5 hPa 0,0 l/m 0,0 km/h (0 Bft) S-SW 205 0,000 mm 0,0 UV-I 92 W/m 12,2 C 19,2 C 1,6 km/h (1 Bft)
26.05.2020 19:50 19,3 C 60 % 1033,4 hPa 0,0 l/m 0,1 km/h (0 Bft) S-SW 206 0,000 mm 0,0 UV-I 101 W/m 11,3 C 19,3 C 1,6 km/h (1 Bft)
26.05.2020 19:45 19,6 C 56 % 1033,5 hPa 0,0 l/m 0,0 km/h (0 Bft) S-SW 206 0,000 mm 0,0 UV-I 105 W/m 10,6 C 19,6 C 1,6 km/h (1 Bft)
26.05.2020 19:40 19,8 C 55 % 1033,4 hPa 0,0 l/m 0,2 km/h (0 Bft) S-SW 206 0,000 mm 0,2 UV-I 111 W/m 10,5 C 19,8 C 1,6 km/h (1 Bft)
26.05.2020 19:35 20,0 C 54 % 1033,4 hPa 0,0 l/m 0,2 km/h (0 Bft) S-SW 207 0,000 mm 0,5 UV-I 148 W/m 10,4 C 20,0 C 1,6 km/h (1 Bft)
26.05.2020 19:30 20,3 C 54 % 1033,4 hPa 0,0 l/m 0,8 km/h (0 Bft) S-SW 205 0,000 mm 0,6 UV-I 254 W/m 10,7 C 20,3 C 4,8 km/h (1 Bft)
26.05.2020 19:25 20,4 C 52 % 1033,5 hPa 0,0 l/m 0,7 km/h (0 Bft) S 179 0,000 mm 0,7 UV-I 311 W/m 10,2 C 20,4 C 6,4 km/h (2 Bft)
26.05.2020 19:20 20,1 C 58 % 1033,5 hPa 0,0 l/m 0,6 km/h (0 Bft) S-SW 204 0,000 mm 0,7 UV-I 298 W/m 11,6 C 20,1 C 3,2 km/h (1 Bft)
26.05.2020 19:15 19,8 C 57 % 1033,5 hPa 0,0 l/m 1,0 km/h (0 Bft) S-SO 160 0,000 mm 0,7 UV-I 214 W/m 11,0 C 19,8 C 8,0 km/h (2 Bft)
26.05.2020 19:10 19,8 C 55 % 1033,6 hPa 0,0 l/m 0,9 km/h (0 Bft) S 182 0,000 mm 0,7 UV-I 201 W/m 10,5 C 19,8 C 4,8 km/h (1 Bft)
26.05.2020 19:05 19,8 C 55 % 1033,6 hPa 0,0 l/m 1,9 km/h (1 Bft) SO 144 0,000 mm 0,7 UV-I 203 W/m 10,5 C 19,8 C 6,4 km/h (2 Bft)
26.05.2020 19:00 19,9 C 54 % 1033,6 hPa 0,0 l/m 4,1 km/h (1 Bft) S-SO 153 0,178 mm 0,7 UV-I 201 W/m 10,3 C 19,9 C 6,4 km/h (2 Bft)
26.05.2020 18:55 19,9 C 55 % 1033,6 hPa 0,0 l/m 1,4 km/h (1 Bft) S-SO 154 0,000 mm 0,8 UV-I 213 W/m 10,6 C 19,9 C 6,4 km/h (2 Bft)
26.05.2020 18:50 20,1 C 58 % 1033,6 hPa 0,0 l/m 0,3 km/h (0 Bft) S-SO 148 0,000 mm 0,9 UV-I 235 W/m 11,6 C 20,1 C 1,6 km/h (1 Bft)
26.05.2020 18:45 19,9 C 56 % 1033,6 hPa 0,0 l/m 2,3 km/h (1 Bft) S-SO 148 0,000 mm 0,9 UV-I 254 W/m 10,9 C 19,9 C 8,0 km/h (2 Bft)
26.05.2020 18:40 19,7 C 55 % 1033,6 hPa 0,0 l/m 3,1 km/h (1 Bft) S-SO 148 0,000 mm 0,9 UV-I 216 W/m 10,4 C 19,7 C 8,0 km/h (2 Bft)
26.05.2020 18:35 19,6 C 56 % 1033,6 hPa 0,0 l/m 0,7 km/h (0 Bft) S-SO 153 0,000 mm 0,9 UV-I 182 W/m 10,6 C 19,6 C 3,2 km/h (1 Bft)
26.05.2020 18:30 19,7 C 55 % 1033,6 hPa 0,0 l/m 1,2 km/h (1 Bft) S-SO 153 0,000 mm 1,0 UV-I 191 W/m 10,4 C 19,7 C 6,4 km/h (2 Bft)
26.05.2020 18:25 19,9 C 56 % 1033,6 hPa 0,0 l/m 3,0 km/h (1 Bft) SO 132 0,000 mm 1,1 UV-I 216 W/m 10,9 C 19,9 C 8,0 km/h (2 Bft)
26.05.2020 18:20 20,3 C 53 % 1033,6 hPa 0,0 l/m 5,0 km/h (1 Bft) S-SO 149 0,000 mm 1,2 UV-I 313 W/m 10,4 C 20,3 C 11,3 km/h (2 Bft)
26.05.2020 18:15 20,4 C 53 % 1033,7 hPa 0,0 l/m 1,1 km/h (1 Bft) S-SO 147 0,000 mm 1,4 UV-I 398 W/m 10,5 C 20,4 C 4,8 km/h (1 Bft)
26.05.2020 18:10 20,3 C 52 % 1033,7 hPa 0,0 l/m 4,0 km/h (1 Bft) S-SO 148 0,000 mm 1,4 UV-I 329 W/m 10,1 C 20,3 C 11,3 km/h (2 Bft)
26.05.2020 18:05 20,5 C 52 % 1033,7 hPa 0,0 l/m 0,7 km/h (0 Bft) S-SO 167 0,000 mm 1,5 UV-I 418 W/m 10,3 C 20,5 C 4,8 km/h (1 Bft)
26.05.2020 18:00 20,4 C 57 % 1033,7 hPa 0,0 l/m 0,6 km/h (0 Bft) SO 137 0,152 mm 1,6 UV-I 433 W/m 11,6 C 20,4 C 3,2 km/h (1 Bft)
26.05.2020 17:55 19,3 C 57 % 1033,7 hPa 0,0 l/m 0,1 km/h (0 Bft) SO 140 0,000 mm 1,5 UV-I 242 W/m 10,6 C 19,3 C 1,6 km/h (1 Bft)
26.05.2020 17:50 19,1 C 56 % 1033,7 hPa 0,0 l/m 0,3 km/h (0 Bft) SO 140 0,000 mm 1,3 UV-I 118 W/m 10,1 C 19,1 C 3,2 km/h (1 Bft)
_ Min-Zeit 02:20 16:00 20:15 - 02:00 - - - - - 02:15 02:20 02:00
Minimum _ 6,1 C 50 % 1033,3 hPa - 0,0 km/h (0 Bft) - - - - - 4,2 C 6,1 C 0,0 km/h (0 Bft)
_ Max-Zeit 16:15 03:15 10:05 02:00 10:50 - - 14:00 13:50 14:25 20:50 16:15 10:50
Maximum _ 21,6 C 94 % 1035,7 hPa 0,0 l/m 5,4 km/h
W-NW (1 Bft)
- - 0,508 mm 5,5 UV-I 973 W/m 12,5 C 21,6 C 14,5 km/h
NW (3 Bft)
Durchschnitt _ 13,6 C 76 % 1034,2 hPa #0,0 l/m 1,2 km/h (1 Bft) NW - #0,000 mm 0,0 UV-I 0 W/m 9,1 C 13,6 C 4,2 km/h (1 Bft)